Time,TemperatureF,DewpointF,PressureIn,WindDirection,WindDirectionDegrees,WindSpeedMPH,WindSpeedGustMPH,Humidity,HourlyPrecipIn,Conditions,Clouds,dailyrainin,SoftwareType,DateUTC
2013-08-07 00:00:00,64.3,63.1,29.87,WSW,248,1.0,7.0,96,0.00,,,0.00,VWS V14.01,2013-08-07 04:00:00,
2013-08-07 00:15:00,64.2,63.0,29.87,SW,225,3.0,15.0,96,0.00,,,0.00,VWS V14.01,2013-08-07 04:15:00,
2013-08-07 00:30:00,63.9,63.0,29.87,SW,225,2.0,9.0,97,0.00,,,0.00,VWS V14.01,2013-08-07 04:30:00,
2013-08-07 00:45:00,64.2,63.3,29.88,WSW,248,3.0,12.0,97,0.00,,,0.00,VWS V14.01,2013-08-07 04:45:00,
2013-08-07 01:00:00,64.3,63.1,29.88,SW,225,2.0,9.0,96,0.00,,,0.00,VWS V14.01,2013-08-07 05:00:00,
2013-08-07 01:15:00,64.5,63.3,29.87,WSW,248,2.0,10.0,96,0.00,,,0.00,VWS V14.01,2013-08-07 05:15:00,
2013-08-07 01:30:00,64.5,63.3,29.87,SW,225,1.0,10.0,96,0.00,,,0.00,VWS V14.01,2013-08-07 05:30:00,
2013-08-07 01:45:00,64.3,63.1,29.87,SW,225,1.0,7.0,96,0.00,,,0.00,VWS V14.01,2013-08-07 05:45:00,
2013-08-07 02:00:00,64.3,62.8,29.87,SW,225,1.0,8.0,95,0.00,,,0.00,VWS V14.01,2013-08-07 06:00:00,
2013-08-07 02:15:00,64.3,62.8,29.86,WSW,248,1.0,7.0,95,0.00,,,0.00,VWS V14.01,2013-08-07 06:15:00,
2013-08-07 02:30:00,64.2,62.7,29.86,WSW,248,0.0,7.0,95,0.00,,,0.00,VWS V14.01,2013-08-07 06:30:00,
2013-08-07 02:45:00,64.0,62.5,29.86,West,270,0.0,7.0,95,0.00,,,0.00,VWS V14.01,2013-08-07 06:45:00,
2013-08-07 03:00:00,63.7,62.2,29.86,WSW,248,0.0,4.0,95,0.00,,,0.00,VWS V14.01,2013-08-07 07:00:00,
2013-08-07 03:15:00,63.7,62.2,29.86,WSW,248,0.0,0.0,95,0.00,,,0.00,VWS V14.01,2013-08-07 07:15:00,
2013-08-07 03:30:00,63.7,62.2,29.86,WSW,248,0.0,3.0,95,0.00,,,0.00,VWS V14.01,2013-08-07 07:30:00,
2013-08-07 03:45:00,63.7,62.2,29.86,WSW,248,0.0,5.0,95,0.00,,,0.00,VWS V14.01,2013-08-07 07:45:00,
2013-08-07 04:00:00,63.7,62.2,29.87,WSW,248,0.0,3.0,95,0.00,,,0.00,VWS V14.01,2013-08-07 08:00:00,
2013-08-07 04:15:00,63.5,62.0,29.88,SW,225,0.0,5.0,95,0.00,,,0.00,VWS V14.01,2013-08-07 08:15:00,
2013-08-07 04:30:00,63.7,62.2,29.88,SW,225,0.0,6.0,95,0.00,,,0.00,VWS V14.01,2013-08-07 08:30:00,
2013-08-07 04:45:00,63.7,62.0,29.88,SW,225,0.0,1.0,94,0.00,,,0.00,VWS V14.01,2013-08-07 08:45:00,
2013-08-07 05:00:00,63.5,61.8,29.88,SW,225,0.0,4.0,94,0.00,,,0.00,VWS V14.01,2013-08-07 09:00:00,
2013-08-07 05:15:00,63.5,61.8,29.88,SW,225,0.0,0.0,94,0.00,,,0.00,VWS V14.01,2013-08-07 09:15:00,
2013-08-07 05:30:00,63.5,61.8,29.88,SW,225,0.0,0.0,94,0.00,,,0.00,VWS V14.01,2013-08-07 09:30:00,
2013-08-07 05:45:00,63.5,62.0,29.88,SW,225,0.0,0.0,95,0.00,,,0.00,VWS V14.01,2013-08-07 09:45:00,
2013-08-07 06:00:00,63.4,62.0,29.89,SW,225,0.0,0.0,95,0.00,,,0.00,VWS V14.01,2013-08-07 10:00:00,
2013-08-07 06:15:00,63.4,62.0,29.89,SW,225,0.0,0.0,95,0.00,,,0.00,VWS V14.01,2013-08-07 10:15:00,
2013-08-07 06:30:00,63.4,62.2,29.90,SW,225,0.0,0.0,96,0.00,,,0.00,VWS V14.01,2013-08-07 10:30:00,
2013-08-07 06:54:00,63.4,62.2,29.89,SW,231,2.0,4.0,96,0.00,,,0.00,VWS V14.01,2013-08-07 10:54:00,
2013-08-07 06:59:00,63.4,62.2,29.89,SW,230,0.0,5.0,96,0.00,,,0.00,VWS V14.01,2013-08-07 10:59:00,
2013-08-07 07:00:00,63.4,62.2,29.90,SW,230,0.0,5.0,96,0.00,,,0.00,VWS V14.01,2013-08-07 11:00:00,
2013-08-07 07:04:00,63.4,62.2,29.90,SW,230,0.0,2.0,96,0.00,,,0.00,VWS V14.01,2013-08-07 11:04:00,
2013-08-07 07:09:00,63.4,62.2,29.90,SW,230,3.0,5.0,96,0.00,,,0.00,VWS V14.01,2013-08-07 11:09:00,
2013-08-07 07:14:00,63.4,62.2,29.90,SW,229,0.0,6.0,96,0.00,,,0.00,VWS V14.01,2013-08-07 11:14:00,
2013-08-07 07:15:00,63.4,62.5,29.91,SW,229,0.0,6.0,97,0.00,,,0.00,VWS V14.01,2013-08-07 11:15:00,
2013-08-07 07:19:00,63.4,62.5,29.91,SW,217,2.0,9.0,97,0.00,,,0.00,VWS V14.01,2013-08-07 11:19:00,
2013-08-07 07:25:00,63.4,62.5,29.91,SW,217,0.0,9.0,97,0.00,,,0.00,VWS V14.01,2013-08-07 11:25:00,
2013-08-07 07:30:00,63.5,62.6,29.91,SW,225,0.0,9.0,97,0.00,,,0.00,VWS V14.01,2013-08-07 11:30:00,
2013-08-07 07:35:00,63.5,62.3,29.90,SW,226,0.0,3.0,96,0.00,,,0.00,VWS V14.01,2013-08-07 11:35:00,
2013-08-07 07:40:00,63.9,62.7,29.90,SW,226,0.0,3.0,96,0.00,,,0.00,VWS V14.01,2013-08-07 11:40:00,
2013-08-07 07:45:00,63.9,62.7,29.90,SW,226,0.0,3.0,96,0.00,,,0.00,VWS V14.01,2013-08-07 11:45:00,
2013-08-07 07:50:00,64.0,62.8,29.91,SW,226,0.0,0.0,96,0.00,,,0.00,VWS V14.01,2013-08-07 11:50:00,
2013-08-07 07:55:00,64.2,62.7,29.91,SW,233,3.0,9.0,95,0.00,,,0.00,VWS V14.01,2013-08-07 11:55:00,
2013-08-07 08:00:00,64.2,62.7,29.91,West,267,0.0,9.0,95,0.00,,,0.00,VWS V14.01,2013-08-07 12:00:00,
2013-08-07 08:01:00,64.2,62.7,29.91,WSW,244,0.0,9.0,95,0.00,,,0.00,VWS V14.01,2013-08-07 12:01:00,
2013-08-07 08:06:00,64.3,62.8,29.91,West,267,1.0,3.0,95,0.00,,,0.00,VWS V14.01,2013-08-07 12:06:00,
2013-08-07 08:11:00,64.2,62.7,29.91,West,259,4.0,5.0,95,0.00,,,0.00,VWS V14.01,2013-08-07 12:11:00,
2013-08-07 08:15:00,64.3,62.8,29.92,SW,232,0.0,7.0,95,0.00,,,0.00,VWS V14.01,2013-08-07 12:15:00,
2013-08-07 08:16:00,64.3,62.8,29.91,SW,229,0.0,7.0,95,0.00,,,0.00,VWS V14.01,2013-08-07 12:16:00,
2013-08-07 08:21:00,64.5,63.0,29.92,SW,232,0.0,3.0,95,0.00,,,0.00,VWS V14.01,2013-08-07 12:21:00,
2013-08-07 08:26:00,64.7,63.2,29.92,SW,231,0.0,6.0,95,0.00,,,0.00,VWS V14.01,2013-08-07 12:26:00,
2013-08-07 08:30:00,64.5,63.0,29.92,SW,233,0.0,6.0,95,0.00,,,0.00,VWS V14.01,2013-08-07 12:30:00,
2013-08-07 08:31:00,64.7,63.2,29.92,SW,231,0.0,6.0,95,0.00,,,0.00,VWS V14.01,2013-08-07 12:31:00,
2013-08-07 08:37:00,64.5,63.0,29.92,WSW,248,6.0,6.0,95,0.00,,,0.00,VWS V14.01,2013-08-07 12:37:00,
2013-08-07 08:42:00,64.5,63.0,29.92,WSW,246,5.0,6.0,95,0.00,,,0.00,VWS V14.01,2013-08-07 12:42:00,
2013-08-07 08:45:00,64.5,63.3,29.92,WSW,246,0.0,6.0,96,0.00,,,0.00,VWS V14.01,2013-08-07 12:45:00,
2013-08-07 08:47:00,64.5,63.3,29.92,WSW,246,0.0,6.0,96,0.00,,,0.00,VWS V14.01,2013-08-07 12:47:00,
2013-08-07 08:52:00,64.5,63.3,29.92,WSW,246,0.0,1.0,96,0.00,,,0.00,VWS V14.01,2013-08-07 12:52:00,
2013-08-07 08:57:00,64.7,63.5,29.92,WSW,246,0.0,1.0,96,0.00,,,0.00,VWS V14.01,2013-08-07 12:57:00,
2013-08-07 09:00:00,64.7,63.5,29.93,WSW,245,2.0,4.0,96,0.00,,,0.00,VWS V14.01,2013-08-07 13:00:00,
2013-08-07 09:02:00,64.7,63.5,29.93,WSW,245,2.0,4.0,96,0.00,,,0.00,VWS V14.01,2013-08-07 13:02:00,
2013-08-07 09:08:00,64.7,63.5,29.93,WSW,245,0.0,0.0,96,0.00,,,0.00,VWS V14.01,2013-08-07 13:08:00,
2013-08-07 09:13:00,64.8,63.6,29.93,WSW,245,0.0,0.0,96,0.00,,,0.00,VWS V14.01,2013-08-07 13:13:00,
2013-08-07 09:15:00,64.8,63.3,29.92,WSW,245,2.0,4.0,95,0.00,,,0.00,VWS V14.01,2013-08-07 13:15:00,
2013-08-07 09:18:00,64.8,63.3,29.92,WSW,245,0.0,2.0,95,0.00,,,0.00,VWS V14.01,2013-08-07 13:18:00,
2013-08-07 09:23:00,65.0,63.5,29.92,WSW,250,0.0,6.0,95,0.00,,,0.00,VWS V14.01,2013-08-07 13:23:00,
2013-08-07 09:28:00,65.2,63.7,29.92,WSW,250,0.0,6.0,95,0.00,,,0.00,VWS V14.01,2013-08-07 13:28:00,
2013-08-07 09:30:00,65.3,63.5,29.92,WSW,250,0.0,6.0,94,0.00,,,0.00,VWS V14.01,2013-08-07 13:30:00,
2013-08-07 09:33:00,65.3,63.5,29.92,WSW,250,0.0,0.0,94,0.00,,,0.00,VWS V14.01,2013-08-07 13:33:00,
2013-08-07 09:39:00,65.5,63.7,29.92,WSW,250,1.0,5.0,94,0.00,,,0.00,VWS V14.01,2013-08-07 13:39:00,
2013-08-07 09:44:00,65.6,63.5,29.92,WSW,250,0.0,5.0,93,0.00,,,0.00,VWS V14.01,2013-08-07 13:44:00,
2013-08-07 09:45:00,65.6,63.5,29.92,WSW,245,0.0,7.0,93,0.00,,,0.00,VWS V14.01,2013-08-07 13:45:00,
2013-08-07 09:49:00,65.6,63.2,29.92,WSW,244,0.0,5.0,92,0.00,,,0.00,VWS V14.01,2013-08-07 13:49:00,
2013-08-07 09:54:00,65.8,63.4,29.92,WSW,244,0.0,5.0,92,0.00,,,0.00,VWS V14.01,2013-08-07 13:54:00,
2013-08-07 09:59:00,66.0,63.6,29.92,WSW,244,2.0,5.0,92,0.00,,,0.00,VWS V14.01,2013-08-07 13:59:00,
2013-08-07 10:00:00,66.0,63.6,29.92,WSW,243,0.0,5.0,92,0.00,,,0.00,VWS V14.01,2013-08-07 14:00:00,
2013-08-07 10:04:00,66.0,63.6,29.92,WSW,243,1.0,6.0,92,0.00,,,0.00,VWS V14.01,2013-08-07 14:04:00,
2013-08-07 10:10:00,66.1,63.7,29.92,WSW,243,0.0,6.0,92,0.00,,,0.00,VWS V14.01,2013-08-07 14:10:00,
2013-08-07 10:15:00,66.3,63.9,29.92,WSW,243,0.0,6.0,92,0.00,,,0.00,VWS V14.01,2013-08-07 14:15:00,
2013-08-07 10:20:00,66.3,63.6,29.93,WSW,243,5.0,7.0,91,0.00,,,0.00,VWS V14.01,2013-08-07 14:20:00,
2013-08-07 10:25:00,66.1,63.7,29.93,WSW,244,0.0,7.0,92,0.00,,,0.00,VWS V14.01,2013-08-07 14:25:00,
2013-08-07 10:30:00,66.1,63.7,29.93,WSW,244,0.0,7.0,92,0.00,,,0.00,VWS V14.01,2013-08-07 14:30:00,
2013-08-07 10:35:00,66.1,63.7,29.94,WSW,244,2.0,3.0,92,0.00,,,0.00,VWS V14.01,2013-08-07 14:35:00,
2013-08-07 10:41:00,66.1,64.0,29.94,WSW,244,0.0,3.0,93,0.00,,,0.00,VWS V14.01,2013-08-07 14:41:00,
2013-08-07 10:45:00,66.4,64.0,29.94,WSW,247,0.0,4.0,92,0.00,,,0.00,VWS V14.01,2013-08-07 14:45:00,
2013-08-07 10:46:00,66.4,64.0,29.94,WSW,247,0.0,4.0,92,0.00,,,0.00,VWS V14.01,2013-08-07 14:46:00,
2013-08-07 10:51:00,66.4,63.7,29.94,WSW,247,0.0,3.0,91,0.00,,,0.00,VWS V14.01,2013-08-07 14:51:00,
2013-08-07 10:56:00,66.8,64.1,29.94,WSW,247,0.0,3.0,91,0.00,,,0.00,VWS V14.01,2013-08-07 14:56:00,
2013-08-07 11:00:00,66.6,64.2,29.93,WSW,247,0.0,4.0,92,0.00,,,0.00,VWS V14.01,2013-08-07 15:00:00,
2013-08-07 11:01:00,66.6,63.9,29.94,WSW,247,0.0,4.0,91,0.00,,,0.00,VWS V14.01,2013-08-07 15:01:00,
2013-08-07 11:06:00,66.8,64.4,29.93,WSW,246,0.0,5.0,92,0.00,,,0.00,VWS V14.01,2013-08-07 15:06:00,
2013-08-07 11:11:00,67.1,64.7,29.93,WSW,246,0.0,5.0,92,0.00,,,0.00,VWS V14.01,2013-08-07 15:11:00,
2013-08-07 11:15:00,67.6,64.6,29.92,WSW,245,0.0,5.0,90,0.00,,,0.00,VWS V14.01,2013-08-07 15:15:00,
2013-08-07 11:17:00,67.6,64.6,29.92,WSW,245,3.0,5.0,90,0.00,,,0.00,VWS V14.01,2013-08-07 15:17:00,
2013-08-07 11:22:00,67.9,64.5,29.92,WSW,244,0.0,0.0,89,0.00,,,0.00,VWS V14.01,2013-08-07 15:22:00,
2013-08-07 11:27:00,68.3,64.9,29.92,WSW,243,0.0,6.0,89,0.00,,,0.00,VWS V14.01,2013-08-07 15:27:00,
2013-08-07 11:30:00,68.4,64.7,29.93,WSW,240,0.0,6.0,88,0.00,,,0.00,VWS V14.01,2013-08-07 15:30:00,
2013-08-07 11:32:00,68.4,64.7,29.93,WSW,239,2.0,6.0,88,0.00,,,0.00,VWS V14.01,2013-08-07 15:32:00,
2013-08-07 11:37:00,68.3,64.6,29.93,West,259,5.0,5.0,88,0.00,,,0.00,VWS V14.01,2013-08-07 15:37:00,
2013-08-07 11:42:00,68.1,64.7,29.93,WSW,250,0.0,5.0,89,0.00,,,0.00,VWS V14.01,2013-08-07 15:42:00,
2013-08-07 11:45:00,67.8,64.8,29.93,WSW,250,0.0,5.0,90,0.00,,,0.00,VWS V14.01,2013-08-07 15:45:00,
2013-08-07 11:47:00,67.8,64.4,29.93,WSW,250,0.0,5.0,89,0.00,,,0.00,VWS V14.01,2013-08-07 15:47:00,
2013-08-07 11:52:00,67.4,64.7,29.93,SW,226,0.0,9.0,91,0.00,,,0.00,VWS V14.01,2013-08-07 15:52:00,
2013-08-07 11:58:00,67.3,64.6,29.93,SW,233,2.0,9.0,91,0.00,,,0.00,VWS V14.01,2013-08-07 15:58:00,
2013-08-07 12:00:00,67.3,64.9,29.93,SW,235,3.0,9.0,92,0.00,,,0.00,VWS V14.01,2013-08-07 16:00:00,
2013-08-07 12:03:00,67.3,64.9,29.93,SW,235,0.0,2.0,92,0.00,,,0.00,VWS V14.01,2013-08-07 16:03:00,
2013-08-07 12:08:00,67.3,64.9,29.93,WSW,242,0.0,6.0,92,0.00,,,0.00,VWS V14.01,2013-08-07 16:08:00,
2013-08-07 12:13:00,67.3,64.6,29.93,West,278,0.0,7.0,91,0.00,,,0.00,VWS V14.01,2013-08-07 16:13:00,
2013-08-07 12:15:00,67.6,64.9,29.92,West,278,0.0,7.0,91,0.00,,,0.00,VWS V14.01,2013-08-07 16:15:00,
2013-08-07 12:18:00,67.6,64.9,29.92,West,278,0.0,0.0,91,0.00,,,0.00,VWS V14.01,2013-08-07 16:18:00,
2013-08-07 12:23:00,67.8,64.8,29.92,West,278,0.0,2.0,90,0.00,,,0.00,VWS V14.01,2013-08-07 16:23:00,
2013-08-07 12:28:00,67.4,65.0,29.92,WSW,249,3.0,7.0,92,0.00,,,0.00,VWS V14.01,2013-08-07 16:28:00,
2013-08-07 12:30:00,67.4,65.0,29.92,SW,236,6.0,9.0,92,0.00,,,0.00,VWS V14.01,2013-08-07 16:30:00,
2013-08-07 12:34:00,67.6,65.2,29.92,WSW,245,5.0,6.0,92,0.00,,,0.00,VWS V14.01,2013-08-07 16:34:00,
2013-08-07 12:39:00,67.9,64.9,29.92,SW,225,0.0,7.0,90,0.00,,,0.00,VWS V14.01,2013-08-07 16:39:00,
2013-08-07 12:44:00,68.4,65.4,29.92,West,267,0.0,7.0,90,0.00,,,0.00,VWS V14.01,2013-08-07 16:44:00,
2013-08-07 12:45:00,68.6,65.2,29.92,West,266,0.0,7.0,89,0.00,,,0.00,VWS V14.01,2013-08-07 16:45:00,
2013-08-07 12:49:00,68.6,65.2,29.92,West,278,4.0,10.0,89,0.00,,,0.00,VWS V14.01,2013-08-07 16:49:00,
2013-08-07 12:54:00,68.6,65.2,29.92,West,262,0.0,11.0,89,0.00,,,0.00,VWS V14.01,2013-08-07 16:54:00,
2013-08-07 12:59:00,68.4,65.0,29.92,West,261,0.0,11.0,89,0.00,,,0.00,VWS V14.01,2013-08-07 16:59:00,
2013-08-07 13:00:00,68.3,65.3,29.92,SW,229,5.0,11.0,90,0.00,,,0.00,VWS V14.01,2013-08-07 17:00:00,
2013-08-07 13:04:00,68.1,65.1,29.92,SW,232,4.0,6.0,90,0.00,,,0.00,VWS V14.01,2013-08-07 17:04:00,
2013-08-07 13:09:00,67.8,65.1,29.92,West,271,0.0,6.0,91,0.00,,,0.00,VWS V14.01,2013-08-07 17:09:00,
2013-08-07 13:14:00,67.6,64.9,29.92,SW,234,2.0,8.0,91,0.00,,,0.00,VWS V14.01,2013-08-07 17:14:00,
2013-08-07 13:15:00,67.6,65.2,29.92,SW,233,0.0,8.0,92,0.00,,,0.00,VWS V14.01,2013-08-07 17:15:00,
2013-08-07 13:19:00,67.6,65.2,29.92,SW,236,0.0,4.0,92,0.00,,,0.00,VWS V14.01,2013-08-07 17:19:00,
2013-08-07 13:25:00,67.9,65.5,29.92,SW,235,0.0,5.0,92,0.00,,,0.00,VWS V14.01,2013-08-07 17:25:00,
2013-08-07 13:30:00,68.6,65.6,29.92,West,262,0.0,6.0,90,0.00,,,0.00,VWS V14.01,2013-08-07 17:30:00,
2013-08-07 13:35:00,69.3,65.6,29.92,WSW,238,5.0,7.0,88,0.00,,,0.00,VWS V14.01,2013-08-07 17:35:00,
2013-08-07 13:40:00,69.6,65.6,29.92,SW,231,7.0,7.0,87,0.00,,,0.00,VWS V14.01,2013-08-07 17:40:00,
2013-08-07 13:45:00,69.4,65.0,29.92,WSW,239,3.0,7.0,86,0.00,,,0.00,VWS V14.01,2013-08-07 17:45:00,
2013-08-07 13:50:00,69.3,65.3,29.91,SW,236,0.0,3.0,87,0.00,,,0.00,VWS V14.01,2013-08-07 17:50:00,
2013-08-07 13:55:00,69.1,65.4,29.91,SW,235,0.0,3.0,88,0.00,,,0.00,VWS V14.01,2013-08-07 17:55:00,
2013-08-07 14:00:00,69.1,66.1,29.91,SW,235,0.0,3.0,90,0.00,,,0.00,VWS V14.01,2013-08-07 18:00:00,
2013-08-07 14:01:00,69.1,66.1,29.91,SW,235,0.0,3.0,90,0.00,,,0.00,VWS V14.01,2013-08-07 18:01:00,
2013-08-07 14:06:00,69.1,66.1,29.91,SW,235,0.0,0.0,90,0.00,,,0.00,VWS V14.01,2013-08-07 18:06:00,
2013-08-07 14:11:00,68.8,66.1,29.91,SW,235,0.0,3.0,91,0.00,,,0.00,VWS V14.01,2013-08-07 18:11:00,
2013-08-07 14:15:00,68.4,66.0,29.92,SW,234,0.0,3.0,92,0.00,,,0.00,VWS V14.01,2013-08-07 18:15:00,
2013-08-07 14:16:00,68.6,66.2,29.91,SW,235,0.0,3.0,92,0.00,,,0.00,VWS V14.01,2013-08-07 18:16:00,
2013-08-07 14:21:00,68.3,66.2,29.92,SW,234,0.0,0.0,93,0.00,,,0.00,VWS V14.01,2013-08-07 18:21:00,
2013-08-07 14:26:00,68.1,66.3,29.92,SW,234,0.0,5.0,94,0.00,,,0.00,VWS V14.01,2013-08-07 18:26:00,
2013-08-07 14:30:00,68.1,66.3,29.92,SSW,210,0.0,5.0,94,0.00,,,0.00,VWS V14.01,2013-08-07 18:30:00,
2013-08-07 14:32:00,68.1,66.3,29.92,SSW,210,2.0,5.0,94,0.00,,,0.00,VWS V14.01,2013-08-07 18:32:00,
2013-08-07 14:37:00,68.1,66.3,29.92,SW,219,0.0,5.0,94,0.00,,,0.00,VWS V14.01,2013-08-07 18:37:00,
2013-08-07 14:42:00,68.3,66.2,29.92,WSW,241,0.0,6.0,93,0.00,,,0.00,VWS V14.01,2013-08-07 18:42:00,
2013-08-07 14:45:00,68.6,66.5,29.92,WSW,241,0.0,6.0,93,0.00,,,0.00,VWS V14.01,2013-08-07 18:45:00,
2013-08-07 14:47:00,68.6,66.5,29.92,WSW,241,0.0,6.0,93,0.00,,,0.00,VWS V14.01,2013-08-07 18:47:00,
2013-08-07 14:52:00,68.6,66.2,29.92,WSW,252,0.0,6.0,92,0.00,,,0.00,VWS V14.01,2013-08-07 18:52:00,
2013-08-07 14:57:00,68.6,66.5,29.92,WSW,255,0.0,7.0,93,0.00,,,0.00,VWS V14.01,2013-08-07 18:57:00,
2013-08-07 15:00:00,69.4,66.3,29.90,SW,234,0.0,10.0,90,0.00,,,0.00,VWS V14.01,2013-08-07 19:00:00,
2013-08-07 15:02:00,69.4,66.3,29.90,SW,234,0.0,10.0,90,0.00,,,0.00,VWS V14.01,2013-08-07 19:02:00,
2013-08-07 15:08:00,70.3,66.6,29.90,SW,228,3.0,11.0,88,0.00,,,0.00,VWS V14.01,2013-08-07 19:08:00,
2013-08-07 15:13:00,70.1,66.4,29.90,WSW,246,3.0,11.0,88,0.00,,,0.00,VWS V14.01,2013-08-07 19:13:00,
2013-08-07 15:15:00,70.8,67.4,29.89,WSW,249,2.0,11.0,89,0.00,,,0.00,VWS V14.01,2013-08-07 19:15:00,
2013-08-07 15:18:00,70.8,66.7,29.89,SW,216,3.0,11.0,87,0.00,,,0.00,VWS V14.01,2013-08-07 19:18:00,
2013-08-07 15:23:00,71.5,67.1,29.89,SW,214,1.0,11.0,86,0.00,,,0.00,VWS V14.01,2013-08-07 19:23:00,
2013-08-07 15:28:00,72.7,67.9,29.89,SW,224,4.0,11.0,85,0.00,,,0.00,VWS V14.01,2013-08-07 19:28:00,
2013-08-07 15:30:00,73.0,67.5,29.88,SW,221,4.0,11.0,83,0.00,,,0.00,VWS V14.01,2013-08-07 19:30:00,
2013-08-07 15:33:00,73.0,67.9,29.88,West,260,2.0,4.0,84,0.00,,,0.00,VWS V14.01,2013-08-07 19:33:00,
2013-08-07 15:39:00,72.7,67.6,29.88,SW,214,2.0,14.0,84,0.00,,,0.00,VWS V14.01,2013-08-07 19:39:00,
2013-08-07 15:44:00,72.7,67.2,29.88,SW,222,0.0,14.0,83,0.00,,,0.00,VWS V14.01,2013-08-07 19:44:00,
2013-08-07 15:45:00,72.8,66.6,29.89,SW,232,3.0,14.0,81,0.00,,,0.00,VWS V14.01,2013-08-07 19:45:00,
2013-08-07 15:49:00,72.8,67.0,29.89,WSW,243,0.0,3.0,82,0.00,,,0.00,VWS V14.01,2013-08-07 19:49:00,
2013-08-07 15:54:00,72.3,66.8,29.89,WSW,252,5.0,10.0,83,0.00,,,0.00,VWS V14.01,2013-08-07 19:54:00,
2013-08-07 15:59:00,71.8,66.4,29.89,WSW,243,0.0,10.0,83,0.00,,,0.00,VWS V14.01,2013-08-07 19:59:00,
2013-08-07 16:00:00,71.6,66.2,29.88,SW,233,5.0,10.0,83,0.00,,,0.00,VWS V14.01,2013-08-07 20:00:00,
2013-08-07 16:04:00,71.5,66.4,29.88,WSW,256,4.0,13.0,84,0.00,,,0.00,VWS V14.01,2013-08-07 20:04:00,
2013-08-07 16:09:00,70.9,66.5,29.88,WSW,243,0.0,13.0,86,0.00,,,0.00,VWS V14.01,2013-08-07 20:09:00,
2013-08-07 16:14:00,70.6,66.6,29.88,WSW,248,1.0,13.0,87,0.00,,,0.00,VWS V14.01,2013-08-07 20:14:00,
2013-08-07 16:15:00,70.4,66.3,29.89,SW,232,5.0,13.0,87,0.00,,,0.00,VWS V14.01,2013-08-07 20:15:00,
2013-08-07 16:20:00,70.3,66.6,29.89,SW,234,2.0,10.0,88,0.00,,,0.00,VWS V14.01,2013-08-07 20:20:00,
2013-08-07 16:25:00,69.9,66.2,29.89,SW,231,0.0,10.0,88,0.00,,,0.00,VWS V14.01,2013-08-07 20:25:00,
2013-08-07 16:30:00,69.6,66.2,29.89,SW,231,0.0,10.0,89,0.00,,,0.00,VWS V14.01,2013-08-07 20:30:00,
2013-08-07 16:35:00,69.3,66.6,29.89,WSW,238,0.0,0.0,91,0.03,,,0.03,VWS V14.01,2013-08-07 20:35:00,
2013-08-07 16:40:00,68.6,66.8,29.89,WSW,242,0.0,3.0,94,0.04,,,0.04,VWS V14.01,2013-08-07 20:40:00,
2013-08-07 16:45:00,68.1,66.6,29.89,WSW,242,0.0,3.0,95,0.04,,,0.04,VWS V14.01,2013-08-07 20:45:00,
2013-08-07 16:50:00,67.8,66.6,29.90,SW,230,2.0,4.0,96,0.07,,,0.07,VWS V14.01,2013-08-07 20:50:00,
2013-08-07 16:56:00,67.8,66.9,29.90,SW,230,0.0,4.0,97,0.13,,,0.13,VWS V14.01,2013-08-07 20:56:00,
2013-08-07 17:00:00,67.4,66.5,29.90,SW,225,1.0,12.0,97,0.08,,,0.09,VWS V14.01,2013-08-07 21:00:00,
2013-08-07 17:15:00,67.1,66.5,29.90,WSW,248,2.0,12.0,98,0.08,,,0.09,VWS V14.01,2013-08-07 21:15:00,
2013-08-07 17:30:00,66.9,66.3,29.89,WSW,248,3.0,15.0,98,0.09,,,0.10,VWS V14.01,2013-08-07 21:30:00,
2013-08-07 17:45:00,67.1,66.8,29.89,WSW,248,2.0,12.0,99,0.08,,,0.10,VWS V14.01,2013-08-07 21:45:00,
2013-08-07 18:00:00,66.9,66.6,29.89,SW,225,3.0,16.0,99,0.05,,,0.10,VWS V14.01,2013-08-07 22:00:00,
2013-08-07 18:15:00,66.8,66.2,29.89,WSW,248,1.0,11.0,98,0.01,,,0.10,VWS V14.01,2013-08-07 22:15:00,
2013-08-07 18:30:00,66.4,65.8,29.90,SW,225,0.0,10.0,98,0.01,,,0.10,VWS V14.01,2013-08-07 22:30:00,
2013-08-07 18:45:00,66.4,65.8,29.91,SW,225,0.0,5.0,98,0.00,,,0.10,VWS V14.01,2013-08-07 22:45:00,
2013-08-07 19:00:00,66.3,65.7,29.91,SW,225,1.0,6.0,98,0.00,,,0.10,VWS V14.01,2013-08-07 23:00:00,
2013-08-07 19:15:00,66.1,65.5,29.90,WSW,248,0.0,5.0,98,0.00,,,0.10,VWS V14.01,2013-08-07 23:15:00,
2013-08-07 19:30:00,66.0,65.4,29.90,WSW,248,0.0,3.0,98,0.00,,,0.10,VWS V14.01,2013-08-07 23:30:00,
2013-08-07 19:45:00,65.6,65.3,29.90,SSW,202,1.0,9.0,99,0.00,,,0.10,VWS V14.01,2013-08-07 23:45:00,
2013-08-07 20:00:00,65.5,65.2,29.91,SW,225,0.0,6.0,99,0.00,,,0.10,VWS V14.01,2013-08-08 00:00:00,
2013-08-07 20:15:00,65.5,65.2,29.90,SW,225,1.0,10.0,99,0.00,,,0.10,VWS V14.01,2013-08-08 00:15:00,
2013-08-07 20:30:00,65.3,65.0,29.90,WSW,248,1.0,6.0,99,0.00,,,0.10,VWS V14.01,2013-08-08 00:30:00,
2013-08-07 20:45:00,65.0,64.7,29.90,WSW,248,2.0,13.0,99,0.00,,,0.10,VWS V14.01,2013-08-08 00:45:00,
2013-08-07 21:00:00,65.0,64.7,29.90,SW,225,2.0,12.0,99,0.00,,,0.10,VWS V14.01,2013-08-08 01:00:00,
2013-08-07 21:15:00,65.0,64.7,29.91,WSW,248,2.0,10.0,99,0.00,,,0.10,VWS V14.01,2013-08-08 01:15:00,
2013-08-07 21:30:00,64.8,64.5,29.90,SW,225,2.0,10.0,99,0.00,,,0.10,VWS V14.01,2013-08-08 01:30:00,
2013-08-07 21:45:00,64.7,64.4,29.91,SW,225,3.0,15.0,99,0.00,,,0.10,VWS V14.01,2013-08-08 01:45:00,
2013-08-07 22:00:00,64.5,63.9,29.91,WSW,248,2.0,13.0,98,0.00,,,0.10,VWS V14.01,2013-08-08 02:00:00,
2013-08-07 22:15:00,64.5,63.9,29.91,WSW,248,0.0,7.0,98,0.00,,,0.10,VWS V14.01,2013-08-08 02:15:00,
2013-08-07 22:30:00,64.3,63.7,29.91,WSW,248,0.0,7.0,98,0.00,,,0.10,VWS V14.01,2013-08-08 02:30:00,
2013-08-07 22:45:00,64.2,63.6,29.91,SW,225,2.0,11.0,98,0.00,,,0.10,VWS V14.01,2013-08-08 02:45:00,
2013-08-07 23:00:00,64.2,63.6,29.91,SW,225,3.0,10.0,98,0.00,,,0.10,VWS V14.01,2013-08-08 03:00:00,
2013-08-07 23:15:00,64.3,63.7,29.91,SW,225,2.0,10.0,98,0.00,,,0.10,VWS V14.01,2013-08-08 03:15:00,
2013-08-07 23:30:00,64.3,63.7,29.91,WSW,248,2.0,12.0,98,0.00,,,0.10,VWS V14.01,2013-08-08 03:30:00,
2013-08-07 23:45:00,64.5,63.9,29.90,SW,225,3.0,12.0,98,0.00,,,0.10,VWS V14.01,2013-08-08 03:45:00,